| time (UTC) | temp F | wind direction | speed knots | gust knots | rain 1hr in | rain 24hr in | rain mn in | humidity % | barometer mb |
| 20260831115115 | 56 | 263 | 0.0 | 0.0 | 0.00 | 0.00 | 0.00 | 70 | 1024.0 |
| 20260831114601 | 56 | 263 | 0.0 | 0.9 | 0.00 | 0.00 | 0.00 | 70 | 1024.0 |
| 20260831114057 | 56 | 263 | 0.0 | 0.0 | 0.00 | 0.00 | 0.00 | 70 | 1024.1 |
| 20260831113544 | 56 | 263 | 0.0 | 1.7 | 0.00 | 0.00 | 0.00 | 71 | 1024.1 |
| 20260831112409 | 56 | 263 | 0.0 | 0.9 | 0.00 | 0.00 | 0.00 | 72 | 1024.3 |
| 20260831111859 | 56 | 263 | 0.9 | 0.9 | 0.00 | 0.00 | 0.00 | 72 | 1024.3 |
| 20260831111348 | 56 | 263 | 0.9 | 0.9 | 0.00 | 0.00 | 0.00 | 72 | 1024.3 |
| 20260831110200 | 56 | 263 | 0.0 | 1.7 | 0.00 | 0.00 | 0.00 | 73 | 1024.3 |
| 20260831105700 | 56 | 263 | 0.0 | 1.7 | 0.00 | 0.00 | 0.00 | 73 | 1024.4 |
| 20260831105202 | 56 | 263 | 0.0 | 1.7 | 0.00 | 0.00 | 0.00 | 73 | 1024.4 |
| 20260831104651 | 56 | 263 | 0.0 | 1.7 | 0.00 | 0.00 | 0.00 | 73 | 1024.4 |
| 20260831104149 | 57 | 263 | 0.0 | 0.0 | 0.00 | 0.00 | 0.00 | 73 | 1024.4 |
| 20260831103650 | 57 | 263 | 0.0 | 0.9 | 0.00 | 0.00 | 0.00 | 73 | 1024.4 |
| 20260831103140 | 57 | 263 | 0.0 | 1.7 | 0.00 | 0.00 | 0.00 | 73 | 1024.4 |
| 20260831102640 | 57 | 263 | 0.0 | 1.7 | 0.00 | 0.00 | 0.00 | 73 | 1024.8 |
| 20260831102129 | 57 | 263 | 0.0 | 0.0 | 0.00 | 0.00 | 0.00 | 73 | 1024.8 |
| 20260831100957 | 58 | 263 | 0.0 | 0.0 | 0.00 | 0.00 | 0.00 | 73 | 1024.9 |
| 20260831095226 | 59 | 263 | 0.0 | 0.0 | 0.00 | 0.00 | 0.00 | 72 | 1024.9 |
| 20260831094053 | 60 | 263 | 0.0 | 0.0 | 0.00 | 0.00 | 0.00 | 70 | 1024.9 |
| 20260831093543 | 60 | 263 | 0.0 | 0.0 | 0.00 | 0.00 | 0.00 | 70 | 1024.9 |
| 20260831093038 | 61 | 263 | 0.0 | 0.0 | 0.00 | 0.00 | 0.00 | 70 | 1024.9 |
| 20260831092527 | 61 | 263 | 0.0 | 0.0 | 0.00 | 0.00 | 0.00 | 69 | 1024.9 |
| 20260831092026 | 61 | 263 | 0.0 | 0.0 | 0.00 | 0.00 | 0.00 | 68 | 1024.9 |
| 20260831091517 | 62 | 263 | 0.0 | 0.0 | 0.00 | 0.00 | 0.00 | 67 | 1024.9 |
| 20260831091002 | 62 | 263 | 0.0 | 0.0 | 0.00 | 0.00 | 0.00 | 67 | 1024.9 |
| 20260831090445 | 62 | 263 | 0.0 | 0.0 | 0.00 | 0.00 | 0.00 | 67 | 1024.9 |
| 20260831085946 | 63 | 263 | 0.0 | 0.0 | 0.00 | 0.00 | 0.00 | 66 | 1024.9 |
| 20260831085435 | 63 | 263 | 0.0 | 0.0 | 0.00 | 0.00 | 0.00 | 65 | 1025.0 |
| 20260831084930 | 64 | 263 | 0.0 | 0.0 | 0.00 | 0.00 | 0.00 | 64 | 1025.0 |
| 20260831083816 | 65 | 263 | 0.0 | 0.0 | 0.00 | 0.00 | 0.00 | 62 | 1025.1 |
| 20260831082631 | 65 | 263 | 0.0 | 0.0 | 0.00 | 0.00 | 0.00 | 61 | 1025.2 |
| 20260831082113 | 66 | 263 | 0.0 | 0.0 | 0.00 | 0.00 | 0.00 | 61 | 1025.2 |
| 20260831081555 | 66 | 263 | 0.0 | 2.6 | 0.00 | 0.00 | 0.00 | 61 | 1025.2 |
| 20260831081042 | 66 | 263 | 0.9 | 3.5 | 0.00 | 0.00 | 0.00 | 60 | 1025.1 |
| 20260831080535 | 66 | 263 | 0.9 | 3.5 | 0.00 | 0.00 | 0.00 | 60 | 1025.1 |
| 20260831080026 | 67 | 263 | 1.7 | 3.5 | 0.00 | 0.00 | 0.00 | 59 | 1025.1 |
| 20260831075529 | 67 | 263 | 0.9 | 3.5 | 0.00 | 0.00 | 0.00 | 59 | 1024.9 |
| 20260831075037 | 67 | 263 | 0.9 | 2.6 | 0.00 | 0.00 | 0.00 | 59 | 1024.9 |
| 20260831074523 | 67 | 263 | 0.9 | 2.6 | 0.00 | 0.00 | 0.00 | 59 | 1024.9 |
| 20260831074011 | 67 | 263 | 1.7 | 2.6 | 0.00 | 0.00 | 0.00 | 58 | 1025.0 |
| 20260831073509 | 67 | 263 | 1.7 | 3.5 | 0.00 | 0.00 | 0.00 | 58 | 1025.0 |
| 20260831072352 | 68 | 263 | 0.9 | 3.5 | 0.00 | 0.00 | 0.00 | 58 | 1025.0 |
| 20260831071850 | 68 | 263 | 0.9 | 0.0 | 0.00 | 0.00 | 0.00 | 57 | 1025.0 |
| 20260831071358 | 68 | 263 | 1.7 | 3.5 | 0.00 | 0.00 | 0.00 | 58 | 1025.1 |
| 20260831070904 | 68 | 263 | 0.9 | 3.5 | 0.00 | 0.00 | 0.00 | 57 | 1025.1 |
| 20260831070354 | 67 | 263 | 0.9 | 3.5 | 0.00 | 0.00 | 0.00 | 58 | 1025.1 |
| 20260831065241 | 67 | 263 | 1.7 | 5.2 | 0.00 | 0.00 | 0.00 | 59 | 1025.3 |
| 20260831064735 | 67 | 263 | 1.7 | 5.2 | 0.00 | 0.00 | 0.00 | 59 | 1025.3 |
| 20260831064234 | 67 | 263 | 1.7 | 6.1 | 0.00 | 0.00 | 0.00 | 58 | 1025.4 |
| 20260831063112 | 67 | 263 | 1.7 | 6.1 | 0.00 | 0.00 | 0.00 | 59 | 1025.4 |
| 20260831062621 | 67 | 263 | 2.6 | 7.0 | 0.00 | 0.00 | 0.00 | 59 | 1025.5 |
| 20260831062128 | 68 | 263 | 3.5 | 7.0 | 0.00 | 0.00 | 0.00 | 58 | 1025.5 |
| 20260831061628 | 68 | 263 | 2.6 | 7.0 | 0.00 | 0.00 | 0.00 | 58 | 1025.5 |
| 20260831061108 | 68 | 263 | 2.6 | 7.0 | 0.00 | 0.00 | 0.00 | 57 | 1025.7 |
| 20260831060555 | 68 | 263 | 2.6 | 7.0 | 0.00 | 0.00 | 0.00 | 57 | 1025.7 |
| 20260831060044 | 68 | 263 | 2.6 | 7.0 | 0.00 | 0.00 | 0.00 | 56 | 1025.7 |
| 20260831055553 | 69 | 263 | 2.6 | 7.0 | 0.00 | 0.00 | 0.00 | 56 | 1025.6 |
| 20260831055048 | 69 | 263 | 2.6 | 5.2 | 0.00 | 0.00 | 0.00 | 55 | 1025.6 |
| 20260831053859 | 70 | 263 | 3.5 | 8.7 | 0.00 | 0.00 | 0.00 | 54 | 1025.6 |
| 20260831053400 | 70 | 263 | 2.6 | 8.7 | 0.00 | 0.00 | 0.00 | 55 | 1025.6 |
| 20260831052842 | 70 | 263 | 3.5 | 7.8 | 0.00 | 0.00 | 0.00 | 54 | 1025.8 |
| 20260831052351 | 70 | 263 | 2.6 | 7.8 | 0.00 | 0.00 | 0.00 | 53 | 1025.8 |
| 20260831051831 | 70 | 263 | 2.6 | 7.8 | 0.00 | 0.00 | 0.00 | 55 | 1025.8 |
| 20260831051340 | 70 | 263 | 3.5 | 7.8 | 0.00 | 0.00 | 0.00 | 53 | 1025.9 |
| 20260831050154 | 71 | 263 | 1.7 | 7.0 | 0.00 | 0.00 | 0.00 | 52 | 1025.9 |
| 20260831045651 | 71 | 263 | 1.7 | 7.0 | 0.00 | 0.00 | 0.00 | 50 | 1026.1 |
| 20260831044509 | 69 | 263 | 2.6 | 7.0 | 0.00 | 0.00 | 0.00 | 54 | 1026.1 |
| 20260831044011 | 69 | 263 | 2.6 | 8.7 | 0.00 | 0.00 | 0.00 | 53 | 1026.4 |
| 20260831043505 | 69 | 263 | 2.6 | 8.7 | 0.00 | 0.00 | 0.00 | 54 | 1026.4 |
| 20260831042959 | 69 | 263 | 4.3 | 8.7 | 0.00 | 0.00 | 0.00 | 54 | 1026.4 |
| 20260831041844 | 70 | 263 | 2.6 | 7.8 | 0.00 | 0.00 | 0.00 | 52 | 1026.8 |
| 20260831041329 | 70 | 263 | 2.6 | 7.0 | 0.00 | 0.00 | 0.00 | 52 | 1027.0 |
| 20260831040818 | 70 | 263 | 2.6 | 7.0 | 0.00 | 0.00 | 0.00 | 53 | 1027.0 |
| 20260831040315 | 69 | 263 | 2.6 | 7.8 | 0.00 | 0.00 | 0.00 | 53 | 1027.0 |
| 20260831035757 | 69 | 263 | 2.6 | 7.8 | 0.00 | 0.00 | 0.00 | 52 | 1027.4 |
| 20260831035250 | 69 | 263 | 2.6 | 7.8 | 0.00 | 0.00 | 0.00 | 52 | 1027.4 |
| 20260831034739 | 70 | 263 | 2.6 | 7.8 | 0.00 | 0.00 | 0.00 | 51 | 1027.4 |
| 20260831034235 | 70 | 263 | 2.6 | 6.1 | 0.00 | 0.00 | 0.00 | 50 | 1027.6 |
| 20260831033105 | 70 | 263 | 0.9 | 4.3 | 0.00 | 0.00 | 0.00 | 49 | 1027.6 |
| 20260831032555 | 69 | 263 | 1.7 | 5.2 | 0.00 | 0.00 | 0.00 | 50 | 1028.0 |
| 20260831032046 | 69 | 263 | 2.6 | 5.2 | 0.00 | 0.00 | 0.00 | 51 | 1028.0 |
| 20260831031536 | 69 | 263 | 1.7 | 5.2 | 0.00 | 0.00 | 0.00 | 52 | 1028.0 |
| 20260831031033 | 69 | 263 | 1.7 | 5.2 | 0.00 | 0.00 | 0.00 | 51 | 1028.4 |
| 20260831030520 | 69 | 263 | 2.6 | 7.0 | 0.00 | 0.00 | 0.00 | 52 | 1028.4 |
| 20260831030005 | 69 | 263 | 1.7 | 7.0 | 0.00 | 0.00 | 0.00 | 52 | 1028.4 |
| 20260831025503 | 69 | 263 | 2.6 | 7.0 | 0.00 | 0.00 | 0.00 | 51 | 1028.6 |
| 20260831024950 | 69 | 263 | 1.7 | 7.0 | 0.00 | 0.00 | 0.00 | 50 | 1028.6 |
| 20260831024447 | 70 | 263 | 0.9 | 4.3 | 0.00 | 0.00 | 0.00 | 50 | 1028.6 |
| 20260831023939 | 70 | 263 | 0.9 | 4.3 | 0.00 | 0.00 | 0.00 | 49 | 1029.0 |
| 20260831023444 | 70 | 263 | 0.9 | 4.3 | 0.00 | 0.00 | 0.00 | 51 | 1029.0 |
| 20260831022935 | 69 | 263 | 0.9 | 4.3 | 0.00 | 0.00 | 0.00 | 51 | 1029.0 |
| 20260831022416 | 69 | 263 | 0.9 | 4.3 | 0.00 | 0.00 | 0.00 | 53 | 1029.2 |
| 20260831021240 | 67 | 263 | 0.9 | 5.2 | 0.00 | 0.00 | 0.00 | 57 | 1029.5 |
| 20260831015522 | 66 | 263 | 0.9 | 3.5 | 0.00 | 0.00 | 0.00 | 59 | 1029.6 |
| 20260831015016 | 66 | 263 | 1.7 | 5.2 | 0.00 | 0.00 | 0.00 | 59 | 1029.6 |
| 20260831014525 | 66 | 263 | 0.9 | 5.2 | 0.00 | 0.00 | 0.00 | 59 | 1029.6 |
| 20260831014031 | 66 | 263 | 1.7 | 5.2 | 0.00 | 0.00 | 0.00 | 60 | 1030.0 |
| 20260831013536 | 65 | 263 | 1.7 | 5.2 | 0.00 | 0.00 | 0.00 | 60 | 1030.0 |
| 20260831013023 | 65 | 263 | 0.9 | 4.3 | 0.00 | 0.00 | 0.00 | 60 | 1030.0 |
| 20260831012531 | 65 | 263 | 0.9 | 4.3 | 0.00 | 0.00 | 0.00 | 60 | 1030.1 |
| 20260831005521 | 63 | 263 | 0.9 | 4.3 | 0.00 | 0.00 | 0.00 | 65 | 1030.1 |
| 20260831004341 | 63 | 263 | 0.0 | 2.6 | 0.00 | 0.00 | 0.00 | 64 | 1030.1 |
| 20260831003845 | 63 | 263 | 0.0 | 2.6 | 0.00 | 0.00 | 0.00 | 66 | 1030.1 |
| 20260831003328 | 62 | 263 | 0.0 | 0.0 | 0.00 | 0.00 | 0.00 | 66 | 1030.1 |
| 20260831002814 | 62 | 263 | 0.0 | 1.7 | 0.00 | 0.00 | 0.00 | 67 | 1030.1 |
| 20260831002258 | 61 | 263 | 0.0 | 1.7 | 0.00 | 0.00 | 0.00 | 67 | 1030.1 |
| 20260831001743 | 61 | 263 | 0.0 | 0.9 | 0.00 | 0.00 | 0.00 | 68 | 1030.1 |
| 20260831001247 | 60 | 263 | 0.0 | 0.0 | 0.00 | 0.00 | 0.00 | 69 | 1030.1 |
| 20260831000752 | 60 | 263 | 0.0 | 2.6 | 0.00 | 0.00 | 0.00 | 69 | 1030.1 |
| 20260830235648 | 60 | 263 | 0.9 | 2.6 | 0.00 | 0.00 | 0.00 | 70 | 1030.2 |
| 20260830235140 | 60 | 263 | 0.0 | 1.7 | 0.00 | 0.00 | 0.00 | 70 | 1030.2 |
| 20260830234630 | 59 | 263 | 0.0 | 1.7 | 0.00 | 0.00 | 0.00 | 72 | 1030.2 |
| 20260830234126 | 58 | 263 | 0.0 | 0.0 | 0.00 | 0.00 | 0.00 | 73 | 1030.3 |
| 20260830233610 | 58 | 263 | 0.0 | 1.7 | 0.00 | 0.00 | 0.00 | 73 | 1030.3 |
| 20260830233120 | 58 | 263 | 0.0 | 1.7 | 0.00 | 0.00 | 0.00 | 74 | 1030.3 |
| 20260830232613 | 57 | 263 | 0.0 | 1.7 | 0.00 | 0.00 | 0.00 | 74 | 1030.3 |
| 20260830232121 | 57 | 263 | 0.0 | 1.7 | 0.00 | 0.00 | 0.00 | 75 | 1030.3 |
| 20260830230941 | 57 | 263 | 0.0 | 0.9 | 0.00 | 0.00 | 0.00 | 76 | 1030.3 |
| 20260830230422 | 56 | 263 | 0.0 | 0.0 | 0.00 | 0.00 | 0.00 | 77 | 1030.3 |
| 20260830225919 | 56 | 263 | 0.0 | 0.0 | 0.00 | 0.00 | 0.00 | 78 | 1030.3 |
| 20260830225420 | 56 | 263 | 0.0 | 0.9 | 0.00 | 0.00 | 0.00 | 80 | 1030.3 |
| 20260830224912 | 55 | 263 | 0.0 | 0.0 | 0.00 | 0.00 | 0.00 | 81 | 1030.3 |
| 20260830224357 | 54 | 263 | 0.0 | 0.0 | 0.00 | 0.00 | 0.00 | 82 | 1030.3 |
| 20260830223840 | 53 | 263 | 0.0 | 0.0 | 0.00 | 0.00 | 0.00 | 84 | 1030.3 |
| 20260830223339 | 52 | 263 | 0.0 | 0.0 | 0.00 | 0.00 | 0.00 | 85 | 1030.3 |
| 20260830222848 | 51 | 263 | 0.0 | 1.7 | 0.00 | 0.00 | 0.00 | 86 | 1030.4 |
| 20260830221715 | 49 | 263 | 0.0 | 0.0 | 0.00 | 0.00 | 0.00 | 87 | 1030.4 |
| 20260830221215 | 48 | 263 | 0.0 | 0.0 | 0.00 | 0.00 | 0.00 | 87 | 1030.3 |
| 20260830220057 | 47 | 263 | 0.0 | 0.0 | 0.00 | 0.00 | 0.00 | 87 | 1030.3 |
| 20260830215555 | 47 | 263 | 0.0 | 0.0 | 0.00 | 0.00 | 0.00 | 87 | 1030.2 |
| 20260830215055 | 46 | 263 | 0.0 | 0.9 | 0.00 | 0.00 | 0.00 | 87 | 1030.2 |
| 20260830214545 | 46 | 263 | 0.0 | 1.7 | 0.00 | 0.00 | 0.00 | 87 | 1030.2 |
| 20260830214028 | 45 | 263 | 0.0 | 0.0 | 0.00 | 0.00 | 0.00 | 87 | 1030.2 |
| 20260830213509 | 45 | 263 | 0.9 | 1.7 | 0.00 | 0.00 | 0.00 | 87 | 1030.2 |
| 20260830212956 | 45 | 263 | 0.0 | 1.7 | 0.00 | 0.00 | 0.00 | 87 | 1030.2 |
| 20260830212449 | 44 | 263 | 0.0 | 0.0 | 0.00 | 0.00 | 0.00 | 87 | 1030.2 |
| 20260830211954 | 44 | 263 | 0.0 | 0.9 | 0.00 | 0.00 | 0.00 | 86 | 1030.2 |
| 20260830211457 | 44 | 263 | 0.0 | 0.0 | 0.00 | 0.00 | 0.00 | 86 | 1030.2 |
| 20260830210338 | 44 | 263 | 0.0 | 0.0 | 0.00 | 0.00 | 0.00 | 86 | 1030.2 |
| 20260830205820 | 44 | 263 | 0.0 | 0.0 | 0.00 | 0.00 | 0.00 | 86 | 1030.2 |
| 20260830205315 | 44 | 263 | 0.0 | 0.0 | 0.00 | 0.00 | 0.00 | 85 | 1030.2 |
| 20260830204803 | 44 | 263 | 0.0 | 0.0 | 0.00 | 0.00 | 0.00 | 85 | 1030.2 |
| 20260830204252 | 44 | 263 | 0.0 | 0.0 | 0.00 | 0.00 | 0.00 | 85 | 1030.1 |
| 20260830203758 | 44 | 263 | 0.0 | 0.0 | 0.00 | 0.00 | 0.00 | 85 | 1030.1 |
| 20260830203259 | 45 | 263 | 0.0 | 0.0 | 0.00 | 0.00 | 0.00 | 85 | 1030.1 |
| 20260830202807 | 45 | 263 | 0.0 | 0.0 | 0.00 | 0.00 | 0.00 | 85 | 1029.9 |
| 20260830202306 | 45 | 263 | 0.0 | 0.0 | 0.00 | 0.00 | 0.00 | 85 | 1029.9 |
| 20260830201805 | 45 | 263 | 0.0 | 0.0 | 0.00 | 0.00 | 0.00 | 85 | 1029.9 |
| 20260830200656 | 45 | 263 | 0.0 | 0.0 | 0.00 | 0.00 | 0.00 | 84 | 1029.7 |
| 20260830200152 | 45 | 263 | 0.0 | 0.9 | 0.00 | 0.00 | 0.00 | 85 | 1029.7 |
| 20260830195657 | 46 | 263 | 0.0 | 0.0 | 0.00 | 0.00 | 0.00 | 85 | 1029.7 |
| 20260830195142 | 46 | 263 | 0.0 | 0.0 | 0.00 | 0.00 | 0.00 | 85 | 1029.7 |
| 20260830194638 | 46 | 263 | 0.0 | 0.0 | 0.00 | 0.00 | 0.00 | 85 | 1029.7 |
| 20260830193509 | 45 | 263 | 0.0 | 0.0 | 0.00 | 0.00 | 0.00 | 85 | 1029.7 |
| 20260830192324 | 45 | 263 | 0.0 | 0.0 | 0.00 | 0.00 | 0.00 | 85 | 1029.6 |
| 20260830191827 | 45 | 263 | 0.0 | 0.0 | 0.00 | 0.00 | 0.00 | 85 | 1029.6 |
| 20260830191326 | 46 | 263 | 0.0 | 0.0 | 0.00 | 0.00 | 0.00 | 85 | 1029.6 |
| 20260830190809 | 46 | 263 | 0.0 | 0.0 | 0.00 | 0.00 | 0.00 | 85 | 1029.6 |
| 20260830190249 | 46 | 263 | 0.0 | 0.0 | 0.00 | 0.00 | 0.00 | 85 | 1029.6 |
| 20260830185734 | 46 | 263 | 0.0 | 0.0 | 0.00 | 0.00 | 0.00 | 85 | 1029.8 |
| 20260830184610 | 46 | 263 | 0.0 | 0.0 | 0.00 | 0.00 | 0.00 | 85 | 1029.8 |
| 20260830184101 | 46 | 263 | 0.0 | 0.0 | 0.00 | 0.00 | 0.00 | 85 | 1029.9 |
| 20260830182934 | 46 | 263 | 0.0 | 0.0 | 0.00 | 0.00 | 0.00 | 85 | 1029.9 |
| 20260830182414 | 46 | 263 | 0.0 | 0.0 | 0.00 | 0.00 | 0.00 | 85 | 1030.1 |
| 20260830181303 | 46 | 263 | 0.0 | 0.0 | 0.00 | 0.00 | 0.00 | 85 | 1030.1 |
| 20260830180755 | 46 | 263 | 0.0 | 0.0 | 0.00 | 0.00 | 0.00 | 85 | 1030.1 |
| 20260830174312 | 46 | 263 | 0.0 | 1.7 | 0.00 | 0.00 | 0.00 | 86 | 1030.4 |
| 20260830171906 | 46 | 263 | 0.9 | 1.7 | 0.00 | 0.00 | 0.00 | 86 | 1030.6 |
| 20260830171349 | 46 | 263 | 0.9 | 1.7 | 0.00 | 0.00 | 0.00 | 86 | 1030.7 |
| 20260830170835 | 46 | 263 | 0.0 | 0.9 | 0.00 | 0.00 | 0.00 | 86 | 1030.7 |
| 20260830170317 | 46 | 263 | 0.0 | 0.0 | 0.00 | 0.00 | 0.00 | 86 | 1030.7 |
| 20260830165757 | 46 | 263 | 0.9 | 1.7 | 0.00 | 0.00 | 0.00 | 86 | 1030.8 |
| 20260830165300 | 46 | 263 | 0.0 | 1.7 | 0.00 | 0.00 | 0.00 | 86 | 1030.8 |
| 20260830164154 | 46 | 263 | 0.0 | 1.7 | 0.00 | 0.00 | 0.00 | 86 | 1031.1 |
| 20260830163657 | 46 | 263 | 0.0 | 1.7 | 0.00 | 0.00 | 0.00 | 86 | 1031.1 |
| 20260830162547 | 46 | 263 | 0.0 | 0.0 | 0.00 | 0.00 | 0.00 | 85 | 1031.2 |
| 20260830162034 | 46 | 263 | 0.0 | 1.7 | 0.00 | 0.00 | 0.00 | 85 | 1031.2 |
| 20260830160900 | 46 | 263 | 0.0 | 0.0 | 0.00 | 0.00 | 0.00 | 85 | 1031.3 |
| 20260830155728 | 46 | 263 | 0.0 | 0.0 | 0.00 | 0.00 | 0.00 | 85 | 1031.5 |
| 20260830155217 | 46 | 263 | 0.0 | 0.0 | 0.00 | 0.00 | 0.00 | 85 | 1031.5 |
| 20260830154719 | 46 | 263 | 0.0 | 0.0 | 0.00 | 0.00 | 0.00 | 85 | 1031.5 |
| 20260830154202 | 46 | 263 | 0.0 | 0.0 | 0.00 | 0.00 | 0.00 | 84 | 1031.6 |
| 20260830153653 | 47 | 263 | 0.0 | 0.0 | 0.00 | 0.00 | 0.00 | 84 | 1031.6 |
| 20260830153157 | 47 | 263 | 0.0 | 0.0 | 0.00 | 0.00 | 0.00 | 84 | 1031.6 |
| 20260830152639 | 47 | 263 | 0.0 | 0.0 | 0.00 | 0.00 | 0.00 | 84 | 1031.7 |
| 20260830151521 | 47 | 263 | 0.0 | 0.0 | 0.00 | 0.00 | 0.00 | 84 | 1031.7 |
| 20260830150356 | 47 | 263 | 0.0 | 0.0 | 0.00 | 0.00 | 0.00 | 84 | 1031.6 |
| 20260830145839 | 47 | 263 | 0.0 | 0.0 | 0.00 | 0.00 | 0.00 | 84 | 1031.6 |
| 20260830145342 | 47 | 263 | 0.0 | 0.0 | 0.00 | 0.00 | 0.00 | 84 | 1031.6 |
| 20260830144218 | 48 | 263 | 0.0 | 0.0 | 0.00 | 0.00 | 0.00 | 84 | 1031.7 |
| 20260830143717 | 48 | 263 | 0.0 | 0.0 | 0.00 | 0.00 | 0.00 | 84 | 1031.7 |
| 20260830143219 | 48 | 263 | 0.0 | 0.0 | 0.00 | 0.00 | 0.00 | 84 | 1031.7 |
| 20260830142708 | 48 | 263 | 0.0 | 0.0 | 0.00 | 0.00 | 0.00 | 84 | 1031.7 |
| 20260830142201 | 48 | 263 | 0.0 | 0.0 | 0.00 | 0.00 | 0.00 | 84 | 1031.7 |
| 20260830141709 | 48 | 263 | 0.0 | 0.0 | 0.00 | 0.00 | 0.00 | 84 | 1031.7 |
| 20260830141210 | 48 | 263 | 0.0 | 0.0 | 0.00 | 0.00 | 0.00 | 84 | 1031.9 |
| 20260830140658 | 48 | 263 | 0.0 | 0.0 | 0.00 | 0.00 | 0.00 | 83 | 1031.9 |
| 20260830135525 | 49 | 263 | 0.0 | 0.0 | 0.00 | 0.00 | 0.00 | 84 | 1032.2 |
| 20260830135024 | 49 | 263 | 0.0 | 0.0 | 0.00 | 0.00 | 0.00 | 84 | 1032.2 |
| 20260830134512 | 49 | 263 | 0.0 | 0.9 | 0.00 | 0.00 | 0.00 | 83 | 1032.2 |
| 20260830134016 | 49 | 263 | 0.0 | 0.0 | 0.00 | 0.00 | 0.00 | 83 | 1032.2 |
| 20260830133522 | 49 | 263 | 0.0 | 0.0 | 0.00 | 0.00 | 0.00 | 83 | 1032.2 |
| 20260830132416 | 50 | 263 | 0.0 | 0.0 | 0.00 | 0.00 | 0.00 | 83 | 1032.2 |
| 20260830131904 | 50 | 263 | 0.0 | 0.0 | 0.00 | 0.00 | 0.00 | 83 | 1032.2 |
| 20260830131400 | 50 | 263 | 0.0 | 0.0 | 0.00 | 0.00 | 0.00 | 82 | 1032.3 |
| 20260830130855 | 50 | 263 | 0.0 | 0.0 | 0.00 | 0.00 | 0.00 | 82 | 1032.3 |
| 20260830130339 | 51 | 263 | 0.0 | 0.0 | 0.00 | 0.00 | 0.00 | 82 | 1032.3 |
| 20260830125831 | 51 | 263 | 0.0 | 0.0 | 0.00 | 0.00 | 0.00 | 81 | 1032.2 |
| 20260830124023 | 52 | 263 | 0.0 | 0.0 | 0.00 | 0.00 | 0.00 | 81 | 1032.1 |
| 20260830123510 | 52 | 263 | 0.0 | 0.0 | 0.00 | 0.00 | 0.00 | 80 | 1032.1 |
| 20260830122950 | 52 | 263 | 0.0 | 0.0 | 0.00 | 0.00 | 0.00 | 79 | 1032.1 |
| 20260830122446 | 53 | 263 | 0.0 | 0.0 | 0.00 | 0.00 | 0.00 | 79 | 1032.2 |
| 20260830121946 | 53 | 263 | 0.0 | 0.0 | 0.00 | 0.00 | 0.00 | 78 | 1032.2 |
| 20260830121453 | 53 | 263 | 0.0 | 0.0 | 0.00 | 0.00 | 0.00 | 78 | 1032.2 |
| 20260830120948 | 54 | 263 | 0.0 | 0.0 | 0.00 | 0.00 | 0.00 | 78 | 1032.0 |
| 20260830115816 | 54 | 263 | 0.0 | 0.0 | 0.00 | 0.00 | 0.00 | 78 | 1032.0 |